Flag for Poland Weather past 2 weeks in Opole, Poland

Now
63 °F

Scattered clouds.


Feels Like: 63 °F
Forecast: 50 / 70 °F
Wind: 5 mph from West

Location: Wroclaw Ii

Current Time: May 30, 2015 at 8:43:11 PM

Latest Report: May 30, 2015 at 8:00 PM


Visibility: N/A

Pressure: 29.95 "Hg

Humidity: 56%

Dew point: 46 °F

Location of OpoleLocation

Historic Weather in Opole — Graph

°F

Opole temperature yesterday

Maximum temperature yesterday: 72 °F (at 4:30 PM)
Minimum temperature yesterday: 50 °F (at 3:00 AM)
Average temperature yesterday: 62 °F

Past Weeks' High & Low Weather Summary

 TemperatureHumidityPressure
High73 °F (May 19, 11:30 AM)100% (May 25, 3:00 AM)30.30 "Hg (May 25, 3:00 AM)
Low41 °F (May 16, 3:30 AM)29% (May 18, 1:30 PM)29.68 "Hg (May 19, 4:00 AM)
Average58 °F67%30.02 "Hg
* Reported May 15 7:00 PM — May 30 7:30 PM, Opole, Weather by CustomWeather, © 2015

Note: Actual official high and low records may vary slightly from our data, if they occured in-between our weather recording intervals... More about our weather records

Advertising

Opole weather history for previous 24 hours

 ConditionsComfort  
Time TempWeatherWind HumidityBarometerVisibility
7:30 PM
Sat, May 30
63 °FPassing clouds.5 mph52%29.95 "HgN/A
7:00 PM63 °FPassing clouds.5 mph52%29.95 "HgN/A
6:30 PM63 °FPassing clouds.7 mph52%29.95 "HgN/A
6:00 PM63 °FPassing clouds.9 mph56%29.95 "HgN/A
5:30 PM64 °FPassing clouds.7 mph52%29.95 "HgN/A
5:00 PM64 °FPassing clouds.9 mph56%29.92 "HgN/A
4:30 PM64 °FPartly sunny.12 mph56%29.92 "HgN/A
4:00 PM63 °FPassing clouds.7 mph64%29.92 "HgN/A
3:30 PM64 °FPassing clouds.7 mph60%29.92 "HgN/A
3:00 PM63 °FPassing clouds.8 mph68%29.92 "HgN/A
2:30 PM61 °FLight rain. Passing clouds.7 mph72%29.92 "HgN/A
2:00 PM61 °FPassing clouds.7 mph72%29.92 "HgN/A
1:30 PM61 °FSprinkles. Scattered clouds.9 mph72%29.92 "HgN/A
1:00 PM64 °FSunny.10 mph60%29.92 "Hg10 mi
12:30 PM66 °FSunny.14 mph56%29.89 "Hg10 mi
12:00 PM66 °FPassing clouds.12 mph52%29.89 "HgN/A
11:30 AM66 °FPassing clouds.16 mph52%29.89 "HgN/A
11:00 AM70 °FPassing clouds.14 mph46%29.89 "HgN/A
10:30 AM70 °FPassing clouds.16 mph43%29.86 "HgN/A
10:00 AM68 °FPassing clouds.15 mph46%29.86 "HgN/A
9:30 AM68 °FPassing clouds.12 mph56%29.86 "HgN/A
9:00 AM68 °FPassing clouds.14 mph56%29.86 "HgN/A
8:30 AM66 °FPassing clouds.12 mph60%29.86 "HgN/A
8:00 AM64 °FPassing clouds.12 mph64%29.86 "HgN/A
7:30 AM64 °FPassing clouds.12 mph64%29.86 "HgN/A
7:00 AM63 °FPassing clouds.7 mph68%29.83 "HgN/A
6:30 AM63 °FPassing clouds.7 mph64%29.83 "HgN/A
6:00 AM61 °FPassing clouds.8 mph68%29.83 "HgN/A
5:30 AM63 °FPassing clouds.7 mph59%29.80 "HgN/A
5:00 AM63 °FClear.2 mph59%29.80 "Hg10 mi
4:30 AM63 °FClear.2 mph64%29.80 "Hg10 mi
4:00 AM61 °FPassing clouds.5 mph72%29.80 "HgN/A
3:30 AM63 °FSprinkles. Passing clouds.3 mph68%29.80 "HgN/A
3:00 AM63 °FPassing clouds.6 mph68%29.80 "HgN/A
2:30 AM59 °FClear.2 mph77%29.83 "Hg10 mi
2:00 AM57 °FClear.2 mph82%29.83 "Hg10 mi
1:30 AM57 °FClear.2 mph82%29.83 "Hg10 mi
1:00 AM57 °FPassing clouds.3 mph82%29.83 "HgN/A
12:30 AM57 °FClear.2 mph82%29.83 "Hg10 mi
12:00 AM57 °FClear.1 mph82%29.83 "Hg10 mi
11:30 PM
Fri, May 29
57 °FClear.2 mph82%29.83 "Hg10 mi
10:30 PM63 °FPassing clouds.3 mph68%29.86 "HgN/A
10:00 PM64 °FClear.2 mph64%29.83 "Hg10 mi
9:30 PM64 °FPassing clouds.5 mph64%29.86 "HgN/A
9:00 PM66 °FPassing clouds.12 mph64%29.86 "HgN/A
8:30 PM70 °FSprinkles. Passing clouds.5 mph50%29.83 "HgN/A
8:00 PM72 °FPassing clouds.5 mph44%29.83 "HgN/A
Weather by CustomWeather, © 2015

See weather overviewHow to use our weather pages